When you browse on this site, cookies collect data to enhance your experience and personalize the content and advertising you see.
Visit our Privacy Policy to learn more. By continuing to use the site, you agree to this use of cookies and data.
  • In Lithuania
  • List of Countries
  • For 7 days
  • Water Temperature
  • Satellite Maps
  • Weather Map
  • Weather Widgets
  • user-avatar
    Login

    Hourly Weather Santiago del Estero

    Today, 10 December, Monday

    Time Temperature Precipitation Wind Pressure Humidity
    00:00 +28°C° 0 mm 2 mps 741 mmHg 59%
    01:00 +28°C° 0 mm 2 mps 741 mmHg 60%
    02:00 +27°C° 0 mm 2 mps 741 mmHg 62%
    03:00 +27°C° 0 mm 2 mps 740 mmHg 63%
    04:00 +26°C° 0 mm 2 mps 740 mmHg 64%
    05:00 +26°C° 0 mm 2 mps 740 mmHg 64%
    06:00 +28°C° 0 mm 2 mps 740 mmHg 59%
    07:00 +30°C° 0 mm 3 mps 741 mmHg 54%
    08:00 +33°C° 0 mm 3 mps 741 mmHg 49%
    09:00 +35°C° 0 mm 4 mps 741 mmHg 44%
    10:00 +37°C° 0 mm 5 mps 741 mmHg 40%
    11:00 +40°C° 0 mm 6 mps 740 mmHg 35%
    12:00 +41°C° 0 mm 6 mps 740 mmHg 33%
    13:00 +41°C° 0 mm 7 mps 739 mmHg 32%
    14:00 +43°C° 0 mm 7 mps 738 mmHg 31%
    15:00 +43°C° 0 mm 7 mps 738 mmHg 31%
    16:00 +43°C° 0 mm 7 mps 737 mmHg 32%
    17:00 +41°C° 0 mm 7 mps 736 mmHg 32%
    18:00 +40°C° 0 mm 6 mps 737 mmHg 36%
    19:00 +38°C° 0 mm 6 mps 737 mmHg 40%
    20:00 +35°C° 0 mm 5 mps 737 mmHg 43%
    21:00 +35°C° 0 mm 5 mps 738 mmHg 43%
    22:00 +34°C° 0 mm 5 mps 738 mmHg 44%
    23:00 +34°C° 0 mm 6 mps 738 mmHg 44%

    Tomorrow, 11 December, Tuesday

    Time Temperature Precipitation Wind Pressure Humidity
    00:00 +33°C° 0 mm 6 mps 737 mmHg 45%
    01:00 +33°C° 0 mm 5 mps 737 mmHg 46%
    02:00 +33°C° 0 mm 5 mps 736 mmHg 47%
    03:00 +32°C° 0 mm 6 mps 736 mmHg 48%
    04:00 +32°C° 0 mm 6 mps 736 mmHg 49%
    05:00 +32°C° 0 mm 6 mps 735 mmHg 50%
    06:00 +33°C° 0 mm 7 mps 736 mmHg 48%
    07:00 +35°C° 0 mm 8 mps 736 mmHg 46%
    08:00 +37°C° 0 mm 10 mps 736 mmHg 45%
    09:00 +39°C° 0 mm 9 mps 737 mmHg 42%
    10:00 +40°C° 0 mm 9 mps 737 mmHg 38%
    11:00 +43°C° 0 mm 9 mps 737 mmHg 35%
    12:00 +44°C° 0 mm 9 mps 736 mmHg 33%
    13:00 +45°C° 0 mm 8 mps 736 mmHg 31%
    14:00 +46°C° 0 mm 7 mps 735 mmHg 29%
    15:00 +46°C° 0 mm 7 mps 735 mmHg 28%
    16:00 +46°C° 0 mm 6 mps 735 mmHg 28%
    17:00 +46°C° 0 mm 5 mps 734 mmHg 28%
    18:00 +43°C° 0 mm 4 mps 735 mmHg 32%
    19:00 +40°C° 0 mm 3 mps 735 mmHg 36%
    20:00 +37°C° 0 mm 2 mps 735 mmHg 41%
    21:00 +37°C° 0 mm 3 mps 736 mmHg 42%
    22:00 +36°C° 0 mm 3 mps 736 mmHg 44%
    23:00 +35°C° 0 mm 3 mps 737 mmHg 45%

    Day after tomorrow, 12 December, Wednesday

    Time Temperature Precipitation Wind Pressure Humidity
    00:00 +34°C° 1.2 mm 3 mps 737 mmHg 52%
    01:00 +31°C° 1.2 mm 3 mps 737 mmHg 59%
    02:00 +30°C° 1.2 mm 3 mps 737 mmHg 65%
    03:00 +29°C° 1 mm 4 mps 737 mmHg 73%
    04:00 +28°C° 1 mm 5 mps 738 mmHg 80%
    05:00 +27°C° 1 mm 7 mps 738 mmHg 87%
    06:00 +27°C° 0.1 mm 7 mps 739 mmHg 84%
    07:00 +28°C° 0.1 mm 7 mps 740 mmHg 81%
    08:00 +29°C° 0.1 mm 7 mps 741 mmHg 78%
    09:00 +30°C° 0.1 mm 6 mps 741 mmHg 71%
    10:00 +33°C° 0.1 mm 5 mps 741 mmHg 64%
    11:00 +35°C° 0.1 mm 4 mps 741 mmHg 57%
    12:00 +36°C° 0.1 mm 4 mps 741 mmHg 55%
    13:00 +36°C° 0.1 mm 4 mps 740 mmHg 52%
    14:00 +37°C° 0.1 mm 4 mps 739 mmHg 50%
    15:00 +37°C° 0 mm 3 mps 739 mmHg 50%
    16:00 +37°C° 0 mm 3 mps 738 mmHg 50%
    17:00 +37°C° 0 mm 3 mps 737 mmHg 50%
    18:00 +36°C° 0.3 mm 3 mps 737 mmHg 55%
    19:00 +34°C° 0.3 mm 3 mps 737 mmHg 61%
    20:00 +32°C° 0.3 mm 2 mps 737 mmHg 67%
    21:00 +31°C° 0.1 mm 2 mps 737 mmHg 69%
    22:00 +31°C° 0.1 mm 2 mps 737 mmHg 71%
    23:00 +30°C° 0.1 mm 2 mps 737 mmHg 73%

    13 December, Thursday

    Time Temperature Precipitation Wind Pressure Humidity
    00:00 +30°C° 0 mm 2 mps 737 mmHg 73%
    01:00 +29°C° 0 mm 2 mps 736 mmHg 74%
    02:00 +29°C° 0 mm 2 mps 735 mmHg 75%
    03:00 +29°C° 0 mm 2 mps 735 mmHg 76%
    04:00 +29°C° 0 mm 2 mps 735 mmHg 77%
    05:00 +28°C° 0 mm 1 mps 734 mmHg 78%
    06:00 +30°C° 0 mm 2 mps 734 mmHg 71%
    07:00 +33°C° 0 mm 3 mps 735 mmHg 65%
    08:00 +34°C° 0 mm 3 mps 735 mmHg 58%
    09:00 +36°C° 0 mm 5 mps 734 mmHg 53%
    10:00 +39°C° 0 mm 6 mps 734 mmHg 48%
    11:00 +41°C° 0 mm 8 mps 733 mmHg 43%
    12:00 +43°C° 0 mm 8 mps 732 mmHg 38%
    13:00 +45°C° 0 mm 8 mps 731 mmHg 34%
    14:00 +46°C° 0 mm 8 mps 730 mmHg 29%
    15:00 +46°C° 0 mm 7 mps 730 mmHg 28%
    16:00 +46°C° 0 mm 6 mps 729 mmHg 28%
    17:00 +46°C° 0 mm 5 mps 729 mmHg 27%
    18:00 +43°C° 0 mm 4 mps 729 mmHg 31%
    19:00 +40°C° 0 mm 3 mps 730 mmHg 35%
    20:00 +37°C° 0 mm 2 mps 730 mmHg 39%
    21:00 +37°C° 0.2 mm 2 mps 731 mmHg 42%
    22:00 +36°C° 0.2 mm 3 mps 732 mmHg 45%
    23:00 +35°C° 0.2 mm 4 mps 732 mmHg 49%

    14 December, Friday

    Time Temperature Precipitation Wind Pressure Humidity
    00:00 +33°C° 0.2 mm 5 mps 732 mmHg 57%
    01:00 +32°C° 0.2 mm 6 mps 732 mmHg 66%
    02:00 +29°C° 0.2 mm 7 mps 732 mmHg 75%
    03:00 +29°C° 0.4 mm 6 mps 733 mmHg 78%
    04:00 +28°C° 0.4 mm 6 mps 734 mmHg 81%
    05:00 +27°C° 0.4 mm 5 mps 735 mmHg 85%
    06:00 +28°C° 0.1 mm 6 mps 736 mmHg 83%
    07:00 +28°C° 0.1 mm 6 mps 736 mmHg 81%
    08:00 +29°C° 0.1 mm 6 mps 737 mmHg 79%
    09:00 +30°C° 0.2 mm 6 mps 737 mmHg 75%
    10:00 +32°C° 0.2 mm 6 mps 738 mmHg 71%
    11:00 +33°C° 0.2 mm 7 mps 738 mmHg 67%
    12:00 +34°C° 0.2 mm 7 mps 738 mmHg 62%
    13:00 +35°C° 0.2 mm 6 mps 737 mmHg 58%
    14:00 +36°C° 0.2 mm 6 mps 737 mmHg 54%
    15:00 +35°C° 0.7 mm 6 mps 737 mmHg 56%
    16:00 +35°C° 0.7 mm 6 mps 737 mmHg 57%
    17:00 +34°C° 0.7 mm 6 mps 737 mmHg 59%
    18:00 +33°C° 0.1 mm 6 mps 738 mmHg 62%
    19:00 +32°C° 0.1 mm 5 mps 739 mmHg 65%
    20:00 +30°C° 0.1 mm 4 mps 740 mmHg 68%
    21:00 +29°C° 0.6 mm 4 mps 740 mmHg 71%
    22:00 +28°C° 0.6 mm 4 mps 741 mmHg 75%
    23:00 +28°C° 0.6 mm 4 mps 742 mmHg 78%

    15 December, Saturday

    Time Temperature Precipitation Wind Pressure Humidity
    00:00 +27°C° 0 mm 4 mps 741 mmHg 80%
    01:00 +27°C° 0 mm 4 mps 741 mmHg 82%
    02:00 +26°C° 0 mm 4 mps 741 mmHg 84%
    03:00 +26°C° 0 mm 4 mps 741 mmHg 84%
    04:00 +26°C° 0 mm 3 mps 742 mmHg 84%
    05:00 +25°C° 0 mm 3 mps 742 mmHg 84%
    06:00 +26°C° 0 mm 3 mps 742 mmHg 81%
    07:00 +27°C° 0 mm 3 mps 743 mmHg 78%
    08:00 +27°C° 0 mm 3 mps 743 mmHg 76%
    09:00 +29°C° 0 mm 3 mps 743 mmHg 69%
    10:00 +30°C° 0 mm 3 mps 743 mmHg 63%
    11:00 +33°C° 0 mm 3 mps 743 mmHg 57%
    12:00 +34°C° 0 mm 3 mps 742 mmHg 52%
    13:00 +35°C° 0 mm 3 mps 741 mmHg 48%
    14:00 +36°C° 0 mm 3 mps 741 mmHg 44%
    15:00 +36°C° 0 mm 3 mps 740 mmHg 44%
    16:00 +36°C° 0 mm 3 mps 740 mmHg 45%
    17:00 +36°C° 0 mm 4 mps 739 mmHg 45%
    18:00 +34°C° 0 mm 3 mps 739 mmHg 51%
    19:00 +31°C° 0 mm 3 mps 740 mmHg 57%
    20:00 +30°C° 0 mm 3 mps 740 mmHg 64%
    21:00 +29°C° 0 mm 2 mps 740 mmHg 67%
    22:00 +28°C° 0 mm 2 mps 740 mmHg 70%
    23:00 +28°C° 0 mm 2 mps 741 mmHg 74%
    Show more